Погода в Коптяжеве

Россия / Оренбургская область     53°27′11″N   52°14′06″E
темп.,
°C
ветер,
м/с
пор.,
м/с
влажн.,
%
обл.,
%
осадки,
мм/ч
давл.,
гПа
погр.,
м
9 марта, вт
вт923:00−4ююз389787 0.9 1004300
02:00−4зюз51295100 1.8 1003653
05:00−9зюз5129266 1.8 1006281
08:00−14зюз349724 0.0 100849
11:00−10юз119460 0.0 101080
14:00−7з0087100 0.0 1010242
17:00−6в1288100 0.0 1009304
20:00−9св2294100 0.0 100823
10 марта, ср
ср1023:00−9с2393100 0.0 100764
02:00−11ссз4794100 0.0 1006189
05:00−13сз5894100 0.1 1006232
08:00−16зсз5896100 0.0 1007179
11:00−13зсз589397 0.1 1009402
14:00−12зсз6992100 0.3 1011545
17:00−11сз6993100 0.7 1013706
20:00−14сз61094100 0.5 1015518
11 марта, чт
чт1123:00−18сз51094100 0.6 1017311
02:00−24сз459743 0.0 101875
05:00−26сз349622 0.0 102164
08:00−28сз34970 0.0 102250
11:00−23сз47940 0.0 1024283
14:00−19зсз469164 0.0 1025416
17:00−18зсз479277 0.0 1025410
20:00−21з479897 0.0 1026108
12 марта, пт
пт1223:00−22зсз3310097 0.0 102840
02:00−21з239984 0.0 102934
05:00−21з3310091 0.1 102944
08:00−22з23100100 0.0 103122
11:00−16з249373 0.0 1033156
14:00−11з359016 0.0 1034319
17:00−10з469117 0.0 1033347
20:00−15з34953 0.0 103442
13 марта, сб
сб1323:00−17з33901 0.0 103625
02:00−18з23860 0.0 103620
05:00−19з22900 0.0 103720
08:00−19зюз12930 0.0 103720
11:00−14з22890 0.0 1038141
14:00−10зюз33860 0.0 1038276
17:00−9зюз23880 0.0 1036232
20:00−15зюз22890 0.0 103620